Preview of NWS' New Version of Forecast
This preview is not operational and should not be used for support decisions.

Regional Weather Roundup (RWR)

Issued by Gray - Portland, ME (GYX)

                            
000
ASUS41 KGYX 202105
RWRGYX
WEATHER ROUNDUP FOR MAINE AND NEW HAMPSHIRE
NATIONAL WEATHER SERVICE GRAY ME
500 PM EDT TUE AUG 20 2019

MEZ002-005-006-010-012-015-018-020-021-024-026-027-029-202200-
MAINE
  
CITY           SKY/WX    TMP DP  RH WIND       PRES   REMARKS
PORTLAND       FAIR      81  55  40 S10       30.04S                  
SANFORD        FAIR      81  58  45 S7        30.05S                  
BAR HARBOR     FAIR      79  60  52 S8        30.02R                  
WISCASSET      FAIR      82  57  42 S5        30.05R                  
ROCKLAND       FAIR      77  62  59 S6        30.03S                  
FRYEBURG       FAIR      82  56  40 S7        30.04S                  
LEWISTONAUBURN FAIR      83  60  45 SW9       30.03F                  
AUGUSTA        FAIR      81  58  45 VRB3      30.04F                  
WATERVILLE     FAIR      80  59  48 SW7       30.01S                  
BANGOR         FAIR      81  57  43 VRB5      30.02S                  
GREENVILLE     NOT AVBL                                               
MILLINOCKET    FAIR      81  54  39 VRB6      30.01R                  
HOULTON        FAIR      80  51  36 W8        29.97R                  
PRESQUE ISLE   FAIR      79  54  41 SW9       29.97S                  
FRENCHVILLE    FAIR      77  51  40 SW9G22    29.96R                  
CARIBOU        FAIR      81  52  36 W10G18    29.96R                  
$$

NHZ002-005-008-009-011-012-014-202200-
NEW HAMPSHIRE
  
CITY           SKY/WX    TMP DP  RH WIND       PRES   REMARKS
PORTSMOUTH     MOSUNNY   81  57  44 S10       30.03F                  
ROCHESTER      FAIR      82  58  43 S8        30.05R                  
NASHUA         FAIR      87  52  29 W6        30.04F                  
MANCHESTER     FAIR      87  49  26 SW5       30.02F                  
CONCORD        FAIR      85  54  34 SE7       30.04F                  
LACONIA        FAIR      83  55  38 SW8       30.05F                  
PLYMOUTH       FAIR      82  51  33 W3        30.04F                  
BERLIN         NOT AVBL                                               
WHITEFIELD     FAIR      80  50  34 SW5       30.06S                  
JAFFREY        FAIR      83  47  28 VRB6      30.10S                  
KEENE          FAIR      84  54  35 S6        30.06F                  
LEBANON        FAIR      87  49  26 W6        30.03F                  
MT WASHINGTON  MOSUNNY   55  46  71 W14G22      N/A                   
$$

VTZ005-007-008-202200-
VERMONT
  
CITY           SKY/WX    TMP DP  RH WIND       PRES   REMARKS
ST JOHNSBURY     N/A     82  52  35 MISG      30.02F                  
MONTPELIER     FAIR      79  55  43 SW6       30.10S                  
BURLINGTON     FAIR      83  54  36 S6        30.02F                  
$$

MAZ007-012-024-CTZ003-RIZ002-NYZ038-NYZ072-202200-
SOUTHERN NEW ENGLAND AND NY
  
CITY           SKY/WX    TMP DP  RH WIND       PRES   REMARKS
BOSTON         FAIR      79  60  52 E14       30.05S                  
WORCESTER      FAIR      81  56  42 W8        30.10S                  
NANTUCKET      FAIR      76  67  73 S6        30.07S                  
PROVIDENCE     PTSUNNY   87  57  35 NW6       30.05F                  
HARTFORD       FAIR      88  54  31 NW6       30.04S                  
ALBANY         FAIR      85  58  39 CALM      30.05F                  
NEW YORK CITY  PTSUNNY   88  62  41 S10       30.04S                  
$$

ANZ081-ANZ082-ANZ150-NHZ014-MEZ023>029-202200-
COASTAL MARINE OBSERVATIONS
  
STATION/POSITION TIME  TEMP    WIND        PRES    WAVE
                       AIR SEA DIR/SP/G            HT/PER
                 (UTC) (F)     (DEG/KT/KT) (MB)    (FT/S)
MATINICUS ROCK   2050   69                 1017.0R
ISLE OF SHOALS   2000   74     140/ 12/ 12 1017.1S
JEFFREYS LEDGE   2038      72                N/A     2/ 7
CASHES LEDGE BUO 2050   68 65  210/  4/  4 1018.0R   2/ 8
GEORGES BANK BUO 2050   70 72  260/  8/ 10 1017.7R   3/ 5
$$

.............KEY..............
   WCI - WIND CHILL
   TC  - TEMPERATURE IN CELSIUS
   VSB - VISIBILITY IN MILES
   HX  - HEAT INDEX
   FAIR- INDICATES FEW OR NO CLOUDS BELOW 12,000 FT, WITH NO 
         SIGNIFICANT WEATHER AND/OR OBSTRUCTIONS TO VISIBILITY.